DeKalb, IL

9:32 AM CDT on April 23, 2017 (GMT -0500)
De Kalb Taylor Municipal

Weather History for KDKB - December, 2011

Change the Weather History Date:

Friday, December 30, 2011

  Actual Average (KARR) Record (KARR)
Temperature  
Mean Temperature 38 °F -  
Max Temperature 42 °F 29 °F 59 °F (2002)
Min Temperature 33 °F 13 °F -2 °F (2013)
Degree Days  
Heating Degree Days 28    
Moisture  
Dew Point 34 °F    
Average Humidity 84    
Maximum Humidity 87    
Minimum Humidity 81    
Precipitation  
Precipitation 0.20 in - - ()
Sea Level Pressure  
Sea Level Pressure 29.59 in    
Wind  
Wind Speed 9 mph (NE)    
Max Wind Speed 18 mph    
Max Gust Speed 22 mph    
Visibility 5 miles    
Events Fog , Rain    
Averages and records for this station are not official NWS values.
T = Trace of Precipitation, MM = Missing Value Source: NWS Daily Summary

Daily Weather History Graph

Daily Weather History Graph

Search for Another Location

Airport or City:

Trip Planner

Search our weather history database for the weather conditions in past years. The results will help you decide how hot, cold, wet, or windy it might be!

Date:

Astronomy

Dec. 30, 2011 Rise Set
Actual Time 7:22 AM CST 4:32 PM CST
Civil Twilight 6:50 AM CST 5:03 PM CST
Nautical Twilight 6:15 AM CST 5:39 PM CST
Astronomical Twilight 5:41 AM CST 6:13 PM CST
Moon 10:35 AM CST (12/30) 11:14 PM CST (12/30)
Length of Visible Light 10h 13m
Length of Day
9h 10m
Waxing Crescent, 36% of the Moon is Illuminated
Dec 30
Waxing Crescent
Jan 1
First Quarter
Jan 9
Full
Jan 16
Last Quarter
Jan 23
New

Hourly Weather History & Observations

Time (CST) Temp. Windchill Dew Point Humidity Pressure Visibility Wind Dir Wind Speed Gust Speed Precip Events Conditions
12:15 AM 33.6 °F 30.6 °F 28.6 °F 82% 29.66 in 10.0 mi ESE 3.5 mph - N/A   Scattered Clouds
12:35 AM 34.0 °F 28.0 °F 29.1 °F 82% 29.66 in 10.0 mi SSE 6.9 mph - N/A   Mostly Cloudy
12:55 AM 35.1 °F 29.3 °F 30.2 °F 82% 29.65 in 10.0 mi SE 6.9 mph - N/A   Scattered Clouds
1:15 AM 35.1 °F 32.2 °F 30.2 °F 82% 29.65 in 10.0 mi East 3.5 mph - N/A   Scattered Clouds
1:35 AM 35.1 °F 30.1 °F 30.0 °F 82% 29.65 in 10.0 mi East 5.8 mph - N/A   Mostly Cloudy
2:15 AM 35.6 °F 30.7 °F 30.2 °F 81% 29.66 in 10.0 mi East 5.8 mph - N/A   Mostly Cloudy
2:35 AM 35.6 °F 29.2 °F 30.2 °F 81% 29.66 in 10.0 mi East 8.1 mph - N/A   Overcast
2:55 AM 35.6 °F 28.6 °F 30.7 °F 82% 29.65 in 7.0 mi East 9.2 mph - N/A Rain Light Rain
3:15 AM 35.6 °F 28.6 °F 30.9 °F 83% 29.63 in 10.0 mi East 9.2 mph - N/A   Light Drizzle
3:35 AM 35.6 °F 28.6 °F 31.1 °F 84% 29.64 in 7.0 mi ESE 9.2 mph - N/A Rain Rain
3:55 AM 35.6 °F 28.0 °F 31.1 °F 84% 29.63 in 7.0 mi ESE 10.4 mph - 0.01 in   Drizzle
4:15 AM 36.0 °F 28.5 °F 31.6 °F 84% 29.62 in 7.0 mi East 10.4 mph - 0.01 in Rain Light Rain
4:35 AM 36.5 °F 27.8 °F 31.6 °F 83% 29.61 in 5.0 mi East 13.8 mph - 0.03 in Rain Light Rain
4:55 AM 36.5 °F 28.2 °F 31.8 °F 83% 29.59 in 7.0 mi East 12.7 mph - 0.05 in Rain Rain
5:35 AM 36.9 °F 27.8 °F 32.0 °F 83% 29.57 in 5.0 mi East 15.0 mph - 0.04 in Rain Light Rain
5:55 AM 37.4 °F 29.8 °F 32.0 °F 81% 29.58 in 7.0 mi ESE 11.5 mph - N/A Rain Light Rain
6:35 AM 37.4 °F 27.8 °F 33.8 °F 87% 29.53 in 4.0 mi East 17.3 mph - N/A Rain Rain
6:55 AM 37.4 °F 28.5 °F 33.8 °F 87% 29.54 in 7.0 mi East 15.0 mph - N/A Rain Light Rain
7:15 AM 37.4 °F 29.3 °F 33.8 °F 87% 29.54 in 7.0 mi East 12.7 mph - N/A Rain Light Rain
7:35 AM 37.9 °F 30.5 °F 33.3 °F 83% 29.54 in 5.0 mi ESE 11.5 mph - N/A   Haze
7:55 AM 38.3 °F 30.5 °F 33.8 °F 84% 29.53 in 5.0 mi East 12.7 mph - N/A   Overcast
8:15 AM 38.3 °F 30.5 °F 33.8 °F 84% 29.52 in 2.5 mi East 12.7 mph - 0.01 in Rain Light Rain
8:35 AM 38.8 °F 31.2 °F 34.3 °F 84% 29.51 in 1.8 mi East 12.7 mph - 0.01 in Rain Rain
8:55 AM 39.2 °F 32.0 °F 35.6 °F 87% 29.51 in 1.5 mi East 11.5 mph - N/A Rain Light Rain
9:15 AM 39.2 °F 32.5 °F 34.7 °F 84% 29.51 in 1.2 mi East 10.4 mph - 0.01 in   Light Drizzle
9:55 AM 40.1 °F 33.6 °F 35.8 °F 85% 29.49 in 1.5 mi East 10.4 mph - 0.02 in   Drizzle
10:15 AM 41.0 °F 34.7 °F 36.5 °F 84% 29.48 in 1.2 mi East 10.4 mph - N/A   Light Drizzle
10:35 AM 41.0 °F 35.8 °F 36.5 °F 84% 29.47 in 0.8 mi East 8.1 mph - N/A   Overcast
10:55 AM 41.4 °F 35.7 °F 36.9 °F 84% 29.46 in 0.5 mi East 9.2 mph - N/A Fog Fog
11:15 AM 41.9 °F 37.5 °F 37.4 °F 84% 29.44 in 0.2 mi East 6.9 mph - N/A   Haze
11:35 AM 42.1 °F 37.1 °F 37.6 °F 84% 29.43 in 0.2 mi East 8.1 mph - N/A Fog Fog
11:55 AM 42.8 °F 38.6 °F 37.4 °F 81% 29.43 in 0.2 mi East 6.9 mph - N/A Fog Fog
12:15 PM 42.1 °F 37.7 °F 37.6 °F 84% 29.42 in 0.2 mi East 6.9 mph - N/A Rain Light Rain
12:35 PM 42.8 °F 39.3 °F 37.4 °F 81% 29.41 in 0.2 mi ENE 5.8 mph - N/A   Drizzle
12:55 PM 42.1 °F 38.4 °F 37.6 °F 84% 29.41 in 0.2 mi NE 5.8 mph - 0.01 in   Drizzle
1:15 PM 42.1 °F 39.2 °F 37.6 °F 84% 29.41 in 0.2 mi NE 4.6 mph - 0.01 in Rain Light Rain
1:35 PM 42.3 °F 38.6 °F 37.8 °F 84% 29.42 in 0.2 mi NNE 5.8 mph - 0.02 in Rain Light Rain
1:55 PM 42.3 °F 37.9 °F 37.8 °F 84% 29.43 in 0.2 mi North 6.9 mph - 0.03 in Rain Rain
2:15 PM 42.3 °F 37.3 °F 37.8 °F 84% 29.44 in 0.5 mi North 8.1 mph - 0.01 in   Drizzle
2:35 PM 42.3 °F 37.3 °F 37.8 °F 84% 29.45 in 1.0 mi North 8.1 mph - 0.01 in   Drizzle
2:55 PM 41.9 °F 36.3 °F 37.6 °F 85% 29.46 in 1.2 mi North 9.2 mph - 0.01 in   Drizzle
3:35 PM 41.4 °F 35.2 °F 37.0 °F 85% 29.49 in 7.0 mi North 10.4 mph - N/A Rain Rain
3:55 PM 41.4 °F 34.7 °F 37.0 °F 85% 29.51 in 7.0 mi North 11.5 mph 16.1 mph N/A   Light Drizzle
4:15 PM 41.2 °F 34.1 °F 36.9 °F 85% 29.52 in 5.0 mi North 12.7 mph - N/A Rain Light Rain
4:35 PM 41.0 °F 33.9 °F 36.7 °F 85% 29.53 in 7.0 mi North 12.7 mph - 0.01 in   Drizzle
4:55 PM 40.5 °F 32.5 °F 36.3 °F 85% 29.55 in 10.0 mi North 15.0 mph 21.9 mph 0.02 in   Light Drizzle
5:15 PM 40.1 °F 32.0 °F 35.8 °F 85% 29.57 in 10.0 mi North 15.0 mph 21.9 mph N/A   Light Drizzle
5:55 PM 39.2 °F 30.8 °F 34.7 °F 84% 29.61 in 10.0 mi North 15.0 mph - N/A   Light Drizzle
6:15 PM 37.8 °F 29.4 °F 33.3 °F 84% 29.63 in 10.0 mi NNW 13.8 mph - N/A   Overcast
6:35 PM 37.6 °F 27.7 °F 33.1 °F 84% 29.64 in 10.0 mi North 18.4 mph - N/A   Overcast
6:55 PM 36.9 °F 27.8 °F 32.4 °F 84% 29.66 in 10.0 mi North 15.0 mph 19.6 mph N/A   Overcast
7:15 PM 36.7 °F 28.0 °F 32.0 °F 83% 29.68 in 7.0 mi NNW 13.8 mph 21.9 mph N/A   Overcast
7:35 PM 35.6 °F 26.2 °F 31.3 °F 84% 29.69 in 4.0 mi NNW 15.0 mph - N/A Rain Light Rain
7:55 PM 35.8 °F 26.5 °F 32.0 °F 86% 29.70 in 5.0 mi NNW 15.0 mph 20.7 mph N/A   Overcast
8:15 PM 35.8 °F 26.5 °F 31.8 °F 86% 29.71 in 5.0 mi NNW 15.0 mph - N/A   Overcast
8:35 PM 35.6 °F 26.6 °F 31.5 °F 85% 29.72 in 5.0 mi NNW 13.8 mph 20.7 mph N/A   Haze
8:55 PM 35.1 °F 25.5 °F 30.9 °F 85% 29.73 in 5.0 mi NNW 15.0 mph 19.6 mph N/A   Overcast
9:15 PM 35.1 °F 26.4 °F 30.9 °F 85% 29.74 in 4.0 mi NNW 12.7 mph 18.4 mph N/A   Overcast
9:35 PM 35.6 °F 28.6 °F 30.2 °F 81% 29.76 in 5.0 mi NW 9.2 mph - N/A   Overcast
9:55 PM 35.1 °F 27.9 °F 30.7 °F 84% 29.76 in 5.0 mi NNW 9.2 mph - N/A   Overcast
10:15 PM 34.9 °F 27.7 °F 30.7 °F 85% 29.76 in 5.0 mi NNW 9.2 mph - N/A   Overcast
10:35 PM 34.3 °F 25.9 °F 30.2 °F 85% 29.78 in 5.0 mi NW 11.5 mph - N/A   Overcast
10:55 PM 34.3 °F 26.5 °F 30.0 °F 84% 29.79 in 5.0 mi NW 10.4 mph - N/A   Overcast
11:15 PM 34.3 °F 25.0 °F 30.0 °F 84% 29.81 in 5.0 mi WNW 13.8 mph 17.3 mph N/A   Overcast
11:35 PM 34.3 °F 25.0 °F 30.0 °F 84% 29.81 in 4.0 mi WNW 13.8 mph - N/A   Overcast
11:55 PM 34.2 °F 25.2 °F 30.0 °F 85% 29.81 in 4.0 mi WNW 12.7 mph - N/A   Overcast